Vorticity
7 5 3 5 7 8 9 8 7 8 10 11 10 7 4 4 4 7 7 1 5 10 10 14 5 2 15 8 -6 0 7 6 5 9 13 9 -0 0 7 8 6 6 6 8 9 10 12 11 10 13 13 9 12 11 5 8 9 8 13 13 10 6 3 4 4 5 5 5 5 5 6 6 5 6 5 5 6 6 8 9 9 8 9 11 10 10
10 7 5 5 5 5 6 7 7 5 7 10 13 11 6 5 5 6 7 2 7 11 3 10 15 4 8 13 5 2 3 5 5 6 8 3 0 6 7 6 5 7 9 3 3 10 10 10 10 13 17 14 12 11 7 7 8 9 11 12 10 5 3 3 3 5 4 3 4 4 5 7 6 6 5 6 7 7 7 9 8 8 10 11 10 9
11 11 10 8 5 4 5 6 6 4 5 8 12 12 8 5 5 2 4 4 11 22 14 5 10 9 8 9 7 5 4 7 4 -0 3 1 -0 5 5 8 8 5 7 2 -1 4 6 9 9 10 15 16 15 11 6 7 8 7 10 11 9 5 3 3 3 3 4 4 4 5 6 7 7 6 7 7 7 7 7 7 7 7 9 10 8 7
10 13 14 13 8 5 5 5 7 6 4 6 8 12 11 7 6 3 5 5 -2 1 6 7 9 7 10 14 9 6 7 8 0 -6 -1 -2 -1 7 6 7 9 7 5 1 1 2 4 9 9 10 13 13 16 15 7 6 9 8 8 10 9 5 3 3 4 3 3 5 4 5 7 8 8 7 7 8 6 6 6 6 7 6 7 8 7 6
7 10 12 13 11 8 5 4 6 6 5 6 5 9 13 10 9 3 3 13 16 12 1 -5 5 7 3 8 12 10 6 5 5 3 3 1 3 7 6 6 7 8 9 3 2 3 4 9 8 7 11 11 12 16 11 5 8 10 7 9 9 6 5 3 4 3 2 5 5 5 7 7 8 8 8 8 6 6 7 6 6 7 7 6 6 5
4 6 8 9 11 9 6 4 5 6 6 7 5 6 9 11 11 5 -5 -10 1 30 33 7 2 6 3 1 2 9 11 6 4 7 8 8 7 4 2 6 6 5 7 6 4 4 4 8 11 11 11 11 10 13 13 6 6 10 7 8 9 6 5 4 4 3 2 5 6 5 6 6 6 8 9 8 5 6 7 7 7 7 7 6 5 5
3 5 5 7 10 11 10 6 3 5 6 6 5 4 5 9 10 9 7 -9 -25 -6 19 20 14 3 0 9 7 3 9 12 7 5 5 3 1 3 3 2 5 6 6 8 6 4 7 8 10 15 16 13 10 11 13 7 5 9 8 7 9 7 5 4 4 3 2 4 6 5 5 6 5 6 9 7 5 6 7 7 7 8 8 7 7 6
4 4 4 5 7 9 12 11 7 3 3 6 7 4 3 7 11 9 9 9 -0 -9 -10 3 24 19 0 3 14 10 1 3 8 5 2 4 2 2 5 5 4 5 5 6 7 4 7 7 4 9 16 16 12 10 12 9 5 7 9 8 8 8 6 3 4 3 2 4 6 5 4 5 5 5 8 8 7 6 7 7 7 7 8 8 9 8
6 5 4 5 6 7 10 13 12 5 1 3 6 8 3 1 8 11 8 8 10 10 -1 -12 1 25 17 -5 2 22 20 7 3 4 2 4 9 5 4 8 6 4 3 2 6 9 8 6 4 4 9 15 15 12 13 11 6 6 9 8 7 8 7 4 4 3 3 5 5 5 5 5 5 5 8 8 7 7 6 7 6 7 7 8 8 8
5 6 5 4 5 5 8 14 15 9 4 2 2 6 7 3 2 6 9 10 8 10 12 1 -12 -0 12 7 -1 1 14 15 1 1 10 4 2 5 5 6 6 3 2 2 4 8 8 5 6 7 8 15 16 13 14 13 8 6 9 9 7 8 8 5 4 4 4 5 5 5 5 5 4 6 8 9 8 7 6 6 6 6 7 7 8 8
7 6 4 4 6 5 4 8 12 11 7 3 2 3 6 7 5 5 6 7 12 13 8 7 3 -6 -3 17 21 -8 -12 18 15 -2 5 8 2 6 5 0 4 6 2 4 5 5 8 7 5 7 10 17 21 15 14 15 11 7 8 11 8 7 9 7 4 5 5 4 4 5 4 4 5 7 9 9 8 6 6 6 6 6 7 6 7 8
11 10 7 3 3 5 5 5 6 10 12 7 4 3 4 5 4 7 8 4 8 14 9 5 7 0 -10 1 25 17 -7 6 24 11 4 9 6 6 10 2 2 10 7 5 4 3 8 7 2 5 8 14 23 23 17 16 15 9 7 11 10 7 8 8 6 5 5 5 4 4 3 3 6 8 9 10 9 7 6 6 6 6 6 6 7 8
14 10 10 10 7 4 4 6 5 4 9 12 7 3 4 5 4 3 6 10 10 7 6 8 7 5 -0 -8 1 19 14 5 16 18 7 10 13 5 6 8 3 5 9 5 1 3 8 6 2 4 7 8 14 20 19 16 16 13 9 9 12 10 8 8 8 6 5 5 4 3 2 1 4 8 10 9 8 7 6 6 6 6 6 7 7 8
24 19 10 5 7 9 3 3 7 4 5 12 10 6 5 4 6 4 3 8 8 4 5 7 10 8 6 3 -8 -12 1 9 14 25 13 -1 14 17 2 2 5 5 10 9 2 4 6 5 3 4 6 7 8 12 15 14 15 15 11 9 11 11 10 9 9 7 5 5 5 3 2 2 3 7 9 9 8 7 6 6 5 6 6 6 7 7
22 34 37 21 4 7 9 2 5 8 5 8 11 10 8 4 3 6 13 16 5 0 11 11 10 11 6 8 5 -13 -13 -9 -13 16 34 3 -3 16 11 5 8 6 9 11 5 5 5 3 3 4 4 5 8 11 13 12 13 14 12 9 9 11 12 10 10 9 7 5 5 3 2 3 4 6 8 8 8 6 6 6 5 6 6 6 7 7
6 10 37 56 34 11 10 4 1 8 9 9 9 7 9 9 2 -5 5 22 15 3 18 26 12 7 6 7 11 3 2 1 -24 -22 14 14 -7 -1 6 8 11 10 8 7 5 6 6 4 2 3 3 4 6 11 15 15 14 14 12 8 7 10 11 12 10 10 9 6 4 3 3 4 5 6 6 6 8 7 6 7 6 6 6 6 7 6
13 -8 -6 38 53 30 20 12 1 3 6 12 19 13 5 10 11 -3 -9 5 9 -3 10 38 36 17 7 5 11 11 6 13 4 -18 -7 11 2 -4 -1 -2 1 9 12 8 7 7 3 2 2 1 2 4 5 9 14 17 15 15 15 9 6 7 9 12 11 10 10 7 4 3 3 5 6 5 4 5 7 8 8 7 6 6 6 6 6 5
15 2 -20 -0 26 29 32 26 14 11 -3 -6 28 45 20 5 12 7 -0 5 7 -8 -15 5 24 26 24 14 7 12 9 9 16 9 5 11 6 -2 -1 -3 -6 2 12 10 6 7 3 0 2 2 0 2 5 6 9 14 14 13 16 13 8 7 8 11 12 11 10 8 5 4 2 4 6 5 3 4 6 8 9 8 6 5 5 6 6 4
11 13 4 2 -2 2 29 39 31 36 14 -33 -16 43 52 29 21 8 -6 -2 6 3 -1 3 -1 -6 14 29 19 12 10 6 10 17 16 13 11 7 3 3 1 -1 6 9 4 5 5 3 3 2 0 2 5 5 5 10 14 13 15 16 12 8 7 9 10 10 9 8 6 4 3 4 6 5 2 2 5 8 9 8 7 6 5 6 6 4
13 11 10 17 4 -15 5 30 29 37 47 6 -41 -20 29 45 44 35 12 -4 -4 -7 -7 18 28 -1 -13 4 12 14 17 11 6 13 22 19 14 13 7 4 6 1 3 10 7 5 5 4 5 3 1 2 5 6 5 6 12 15 14 16 14 10 7 7 11 10 8 8 7 6 4 3 5 5 2 2 4 6 8 9 8 7 6 5 6 5
13 10 8 20 26 6 -13 3 21 12 27 51 8 -44 -27 10 24 38 37 13 1 -7 -27 -11 32 39 26 21 12 4 7 16 16 9 15 22 16 14 11 9 10 7 7 10 7 5 5 3 5 5 2 2 3 5 6 4 7 12 15 16 15 12 9 8 11 13 11 8 7 6 5 4 4 4 3 2 4 5 7 9 9 7 7 5 6 6
7 10 12 8 13 24 8 6 31 16 -3 40 56 3 -26 -8 6 23 43 30 10 5 -16 -29 -6 20 36 56 65 45 10 1 15 15 10 13 13 11 10 11 13 10 9 10 8 9 8 4 5 6 4 4 2 2 5 5 4 7 13 17 18 15 11 8 8 12 14 11 8 7 6 5 5 5 3 2 3 4 5 8 9 7 7 6 6 6
6 1 8 4 -10 -2 6 4 16 13 -7 8 45 37 -4 -9 7 13 32 47 35 23 5 -21 -24 -10 -7 -1 26 56 45 11 1 6 9 12 12 13 12 11 14 13 10 8 8 11 10 6 6 5 2 4 4 1 3 5 4 5 8 14 20 19 13 9 8 9 12 13 11 9 6 6 6 5 4 3 3 4 4 6 8 7 7 7 7 6
11 4 4 12 5 -7 -11 -5 1 -1 -12 -17 9 33 7 -16 -2 2 8 34 41 38 36 11 -15 -18 -14 -15 -10 9 26 27 15 3 4 12 12 12 15 13 10 12 12 9 7 7 7 6 4 2 2 3 2 1 1 2 4 3 4 9 17 22 18 10 7 8 10 13 13 11 8 7 7 6 5 4 3 4 4 5 7 8 7 7 7 7
5 8 4 2 11 12 1 6 17 14 11 0 -7 15 21 -2 -9 -3 1 9 12 18 31 35 28 7 -16 -5 26 26 5 9 22 14 6 11 11 12 18 19 16 12 10 10 8 6 6 4 1 2 6 4 1 2 0 -0 3 3 4 5 9 19 23 15 8 6 8 10 12 13 12 10 9 8 7 5 4 3 3 4 6 7 7 7 7 7
-1 4 10 2 0 9 8 12 19 12 17 21 0 1 29 23 -3 -8 -2 2 16 19 -3 -7 28 42 4 -19 16 48 36 19 20 18 15 11 5 3 5 12 20 19 13 12 10 5 5 5 -0 -1 1 1 1 3 1 -0 2 3 5 6 5 12 21 20 12 6 6 9 10 11 13 13 12 11 10 8 6 4 4 4 5 6 7 7 7 7
5 -1 4 7 3 1 -0 6 15 3 -4 11 10 -3 14 27 13 3 -5 -12 11 34 8 -21 -5 23 23 0 -6 11 19 11 4 7 21 27 17 9 3 2 10 12 8 11 10 4 4 7 6 3 2 1 2 2 3 3 2 3 6 7 6 7 15 22 18 9 6 7 8 9 11 13 14 14 13 11 8 6 5 4 4 6 7 7 7 7
17 10 5 6 7 2 -5 -4 11 16 2 2 8 -2 -3 7 7 15 18 -8 -11 16 14 -6 -9 1 8 8 15 28 20 4 3 2 9 26 26 14 7 4 9 10 4 6 11 9 5 4 8 10 5 2 2 1 3 6 3 3 6 7 7 7 9 18 21 15 8 5 6 8 9 10 12 13 13 12 11 9 7 5 4 4 6 7 7 7
22 19 15 11 7 2 1 0 4 17 18 9 8 8 8 3 -14 1 35 20 -7 3 8 -9 -11 2 -1 -16 4 44 34 6 15 13 -4 8 18 8 3 5 11 16 11 6 9 11 8 2 2 8 7 3 4 4 4 7 5 4 6 6 8 9 8 12 19 20 13 6 5 7 7 9 10 10 12 12 11 11 9 8 6 4 4 5 6 8
28 25 20 20 19 8 4 5 -1 2 11 10 8 8 13 18 2 -9 14 20 3 5 12 5 -2 1 0 -16 -12 22 27 12 27 27 3 7 19 13 10 9 9 14 11 5 5 3 6 7 1 4 7 5 6 6 4 6 6 5 7 7 6 8 9 10 13 20 19 11 7 6 5 7 9 9 11 11 10 11 11 10 8 5 4 4 5 7
33 33 24 21 26 21 12 9 3 2 6 4 8 12 9 20 26 9 1 4 2 -1 0 4 6 1 2 -2 -14 -8 7 18 34 30 7 7 18 15 12 7 4 6 3 4 8 3 3 7 3 3 6 4 5 7 5 6 6 5 7 7 6 6 9 10 10 16 21 18 11 7 5 5 7 8 9 10 10 11 11 12 11 7 5 4 4 5
23 33 30 21 22 21 17 15 10 10 14 6 2 12 12 11 18 18 13 8 1 1 1 1 7 6 -0 -3 -15 -28 -23 2 29 30 6 0 14 20 16 10 8 7 2 6 13 9 4 5 3 4 5 4 6 8 7 8 8 8 8 7 6 5 7 10 8 9 15 18 16 13 9 6 6 7 7 8 9 10 11 12 12 10 8 6 5 4
10 21 28 31 32 26 17 19 16 10 17 15 1 4 13 14 12 13 20 19 7 4 4 -3 4 10 -2 -10 -8 -18 -37 -34 1 28 17 1 8 17 16 15 16 10 5 9 14 10 8 8 5 3 3 3 7 8 8 8 8 10 11 8 6 6 6 7 6 4 7 13 17 18 15 11 8 7 7 7 8 9 10 11 12 12 10 8 7 6
7 10 16 26 38 38 23 18 18 12 13 17 7 -1 3 9 13 16 22 22 9 3 -0 -14 -14 -1 -4 -11 2 14 -5 -33 -26 7 20 6 3 12 15 15 17 12 6 8 12 10 7 6 5 4 4 4 6 6 5 5 4 7 11 9 6 5 5 5 6 5 4 6 10 15 17 16 13 10 8 8 8 8 9 10 12 12 12 10 9 9
8 6 8 12 25 37 32 21 20 18 15 18 14 4 1 5 7 14 25 26 13 8 9 -3 -16 -9 -1 -10 -12 10 29 16 -6 -5 10 10 5 10 14 10 9 10 7 6 9 9 5 2 3 4 2 2 5 6 5 3 3 5 8 10 7 5 5 5 6 6 4 3 4 7 12 16 17 15 12 9 9 9 8 9 10 11 12 11 10 9
16 8 6 9 15 26 30 28 32 31 19 16 17 8 3 7 8 7 17 27 22 13 14 14 3 3 17 17 -2 -12 1 14 11 6 9 12 9 9 14 16 11 9 8 5 5 5 2 2 5 2 -1 1 3 5 5 2 2 5 9 13 11 6 4 5 6 5 4 4 4 4 6 10 14 17 17 14 11 10 9 10 10 9 10 11 11 11
23 14 5 6 10 15 18 20 35 50 38 16 12 13 8 8 14 12 12 23 29 17 10 19 17 1 3 24 30 11 -10 -15 -3 9 11 9 7 6 11 20 21 14 11 8 6 3 1 2 2 -2 -1 3 3 3 4 2 1 4 8 12 12 8 5 5 6 6 5 4 4 4 5 7 9 13 17 18 16 13 11 11 11 10 9 9 10 11
19 20 13 8 6 7 9 7 17 44 48 19 4 14 12 4 10 16 11 16 28 21 6 12 25 13 -5 5 25 27 12 -3 -8 -1 7 8 9 8 7 15 22 19 13 9 6 6 5 3 2 1 2 4 3 3 4 2 2 4 7 11 13 10 7 6 6 7 6 5 4 4 6 8 8 9 11 14 17 17 14 13 11 11 10 9 10 10
12 18 18 15 13 8 6 9 16 33 42 26 10 14 15 4 3 12 12 9 18 29 19 3 10 19 6 2 17 23 19 13 -2 -8 0 5 7 7 5 9 20 23 18 10 5 6 7 4 3 4 3 3 3 4 4 3 3 4 6 10 12 11 10 9 8 8 7 5 3 4 7 8 7 8 8 9 14 16 16 15 13 11 9 9 10 11
13 18 18 14 19 16 5 8 17 24 34 33 19 12 15 10 -2 2 19 18 4 18 37 22 8 15 9 3 16 24 20 15 4 -3 1 4 5 8 7 6 12 21 24 17 8 6 7 6 5 5 4 4 3 4 5 4 3 4 6 7 8 10 12 12 11 8 5 3 4 6 8 8 7 8 8 8 11 13 14 16 15 13 11 9 8 10
16 20 19 12 17 20 9 6 13 16 23 34 28 14 11 13 1 -6 16 31 8 -1 28 39 21 13 10 3 7 18 22 20 11 1 -1 3 4 5 7 8 9 14 22 22 14 8 6 6 7 8 8 8 7 8 7 4 3 5 7 6 4 7 12 12 9 6 3 3 7 8 8 8 8 9 8 7 10 11 12 15 16 14 11 8 7 10
22 25 23 15 15 20 16 12 14 13 13 24 32 26 14 14 13 -2 -3 20 20 -4 7 38 39 19 10 7 4 6 14 20 17 7 -0 2 7 5 3 8 10 11 19 23 20 14 8 4 4 7 9 12 13 12 8 4 5 5 3 4 3 4 8 8 7 7 6 6 8 9 8 7 8 10 9 7 8 11 12 15 16 14 11 8 6 10
27 33 29 18 11 16 21 17 13 13 14 20 29 31 23 15 15 7 -3 11 22 -1 -17 13 43 35 16 10 6 3 5 11 15 12 3 -0 5 8 5 5 8 12 16 20 21 18 11 5 3 4 7 12 16 16 9 5 5 3 2 6 4 1 4 6 6 7 7 7 8 8 7 7 8 9 9 8 10 13 14 15 15 13 11 9 9 12
23 29 29 24 11 10 18 19 16 12 12 17 22 26 30 24 12 7 6 10 20 13 -9 -6 27 43 30 16 10 7 7 8 9 10 8 3 4 9 10 5 6 11 15 16 19 19 13 9 7 8 9 11 14 17 14 9 5 2 4 8 2 -3 3 7 4 4 4 5 8 8 6 6 8 10 10 10 13 15 15 14 14 13 11 10 11 15
22 18 24 29 20 12 11 12 17 15 7 11 18 19 29 33 18 9 10 6 5 14 10 -2 10 35 40 26 11 6 9 14 11 6 6 5 4 9 13 9 7 11 14 14 16 18 16 12 11 11 12 10 10 12 13 13 9 5 6 6 -1 -4 3 6 3 3 2 1 6 9 7 8 11 13 12 11 13 15 16 14 13 11 11 11 13 17
27 19 20 25 21 18 12 7 13 17 11 12 16 14 20 28 21 14 18 15 3 7 19 13 5 19 39 35 15 6 10 17 17 9 4 5 7 9 12 12 10 12 13 14 16 19 15 12 13 16 16 14 12 9 10 12 11 8 6 5 1 2 6 5 3 3 0 -1 5 10 11 12 13 13 12 11 11 13 13 14 13 11 10 11 14 17
25 27 25 23 19 18 14 8 9 13 14 15 16 14 15 20 17 10 13 22 20 15 25 31 16 11 30 36 20 10 12 14 16 12 5 4 9 11 11 11 11 12 12 12 15 17 16 15 19 22 21 18 15 13 14 17 18 18 16 12 10 11 9 4 3 1 -3 0 9 13 14 14 13 11 9 9 10 11 12 12 11 11 11 12 15 17
14 25 31 27 22 19 17 13 10 10 14 16 15 15 15 14 15 11 6 15 22 11 11 31 34 21 21 25 21 17 14 12 15 16 9 4 6 8 9 11 11 10 10 11 14 19 21 19 18 16 14 14 16 19 22 22 21 21 21 19 20 20 13 6 2 -2 -1 8 17 17 13 11 9 9 9 9 9 10 12 13 11 12 14 13 13 13
13 17 25 24 20 19 21 23 18 12 15 17 13 16 20 14 11 13 12 15 18 3 -7 14 39 35 16 9 16 20 16 14 18 18 9 2 2 3 4 9 11 10 8 10 13 17 18 14 10 8 10 13 18 20 20 18 15 13 13 15 20 22 15 6 -0 0 9 20 20 14 10 8 7 8 8 8 8 9 11 12 12 12 13 13 11 10
23 22 20 17 13 11 17 27 29 19 16 17 14 15 21 19 11 10 12 16 20 11 -4 6 34 36 11 -2 9 18 16 17 21 17 7 3 7 10 7 7 10 10 6 7 10 12 12 8 4 5 10 15 19 19 18 19 19 16 14 16 19 18 11 3 2 8 18 19 13 8 7 7 6 7 7 6 8 12 14 14 14 13 13 13 12 10
27 34 25 14 12 13 13 19 28 29 26 25 20 13 13 16 14 12 13 15 20 17 4 8 32 36 11 -3 7 13 12 17 21 16 7 -1 4 16 15 7 8 10 4 3 8 10 8 6 4 7 12 15 18 22 25 25 25 24 22 21 18 13 8 3 6 13 15 10 6 6 7 6 5 5 7 7 9 14 17 13 10 11 11 10 10 9
Height
5845 5847 5849 5854 5858 5860 5861 5862 5865 5866 5865 5867 5871 5873 5875 5877 5879 5880 5882 5881 5879 5881 5882 5881 5882 5881 5881 5884 5888 5890 5890 5890 5891 5891 5893 5895 5893 5892 5894 5895 5897 5900 5901 5902 5903 5904 5905 5906 5907 5908 5909 5911 5912 5914 5916 5917 5918 5920 5921 5923 5924 5926 5927 5928 5930 5931 5932 5933 5934 5935 5937 5938 5939 5940 5941 5941 5942 5943 5944 5945 5946 5946 5947 5948 5949 5949
5841 5842 5847 5853 5855 5856 5857 5858 5860 5861 5861 5864 5868 5870 5872 5874 5876 5878 5879 5879 5877 5879 5880 5880 5881 5880 5880 5882 5884 5887 5889 5889 5889 5890 5892 5892 5890 5890 5893 5895 5897 5899 5900 5901 5902 5903 5904 5905 5906 5907 5909 5910 5912 5913 5915 5916 5918 5919 5921 5922 5924 5926 5927 5928 5929 5931 5932 5933 5934 5935 5936 5938 5939 5940 5940 5941 5943 5944 5944 5945 5946 5947 5948 5949 5949 5950
5837 5840 5846 5850 5851 5852 5853 5854 5856 5857 5859 5862 5865 5867 5869 5871 5874 5875 5875 5876 5877 5876 5877 5878 5879 5879 5880 5880 5881 5884 5887 5887 5888 5889 5890 5890 5888 5888 5891 5894 5897 5899 5901 5901 5901 5902 5903 5904 5905 5906 5908 5909 5911 5912 5914 5916 5917 5919 5921 5922 5924 5926 5927 5928 5929 5930 5932 5933 5934 5936 5937 5938 5939 5940 5941 5942 5943 5944 5945 5946 5946 5947 5948 5949 5950 5950
5834 5839 5844 5846 5846 5848 5849 5850 5852 5855 5856 5858 5861 5863 5866 5868 5870 5872 5873 5875 5876 5874 5875 5877 5877 5877 5878 5879 5879 5881 5884 5884 5885 5886 5888 5890 5890 5889 5890 5893 5896 5899 5900 5900 5900 5901 5902 5903 5904 5905 5907 5908 5910 5912 5913 5915 5917 5919 5920 5922 5924 5925 5926 5928 5929 5930 5932 5933 5935 5936 5938 5939 5940 5940 5941 5942 5943 5944 5945 5946 5947 5948 5948 5949 5950 5951
5832 5836 5839 5839 5840 5843 5844 5846 5849 5852 5853 5856 5858 5860 5862 5865 5866 5869 5871 5872 5873 5872 5872 5874 5874 5874 5876 5877 5877 5879 5881 5882 5882 5884 5886 5889 5890 5889 5891 5893 5895 5897 5899 5898 5899 5900 5902 5903 5903 5904 5906 5907 5909 5911 5913 5915 5916 5918 5920 5921 5923 5924 5926 5927 5929 5930 5932 5934 5936 5937 5938 5939 5940 5941 5941 5942 5943 5944 5945 5946 5947 5948 5949 5950 5950 5951
5827 5831 5833 5832 5834 5838 5840 5843 5846 5849 5850 5852 5855 5857 5859 5861 5862 5864 5866 5868 5869 5868 5868 5870 5871 5871 5873 5874 5876 5878 5879 5880 5882 5883 5885 5887 5888 5888 5889 5891 5892 5895 5897 5897 5897 5900 5902 5902 5902 5903 5905 5906 5908 5909 5911 5913 5915 5917 5918 5920 5922 5923 5925 5927 5928 5930 5932 5934 5936 5937 5939 5939 5940 5941 5941 5942 5943 5944 5945 5946 5947 5948 5949 5950 5951 5952
5823 5826 5827 5827 5830 5833 5836 5839 5842 5845 5847 5848 5851 5854 5855 5856 5857 5858 5861 5863 5864 5865 5868 5869 5868 5870 5872 5873 5875 5876 5876 5878 5881 5882 5883 5884 5885 5884 5885 5888 5890 5894 5896 5896 5896 5898 5900 5901 5902 5903 5904 5905 5907 5908 5910 5912 5913 5915 5917 5919 5921 5923 5925 5926 5928 5930 5932 5934 5936 5937 5938 5939 5939 5940 5941 5942 5943 5944 5946 5946 5947 5948 5949 5950 5951 5952
5818 5821 5823 5823 5826 5829 5832 5836 5839 5841 5843 5844 5847 5849 5850 5852 5853 5854 5857 5858 5858 5861 5864 5866 5866 5867 5869 5870 5872 5873 5874 5876 5877 5880 5881 5880 5882 5883 5884 5888 5891 5894 5894 5894 5895 5897 5899 5900 5901 5901 5903 5904 5905 5907 5908 5911 5913 5915 5917 5918 5920 5922 5924 5926 5928 5930 5932 5934 5935 5936 5937 5938 5939 5940 5941 5942 5943 5945 5946 5947 5947 5948 5949 5950 5951 5952
5813 5817 5819 5818 5821 5825 5829 5833 5836 5837 5838 5841 5844 5844 5846 5848 5849 5852 5853 5854 5857 5858 5858 5862 5864 5863 5865 5869 5871 5870 5871 5872 5874 5876 5878 5877 5880 5883 5884 5887 5891 5892 5892 5892 5894 5896 5897 5899 5900 5900 5901 5902 5904 5906 5908 5910 5912 5914 5916 5918 5920 5922 5924 5926 5927 5929 5931 5933 5934 5936 5937 5938 5939 5940 5942 5943 5944 5945 5946 5947 5947 5948 5949 5950 5951 5952
5807 5812 5814 5813 5816 5822 5826 5828 5831 5831 5833 5838 5839 5838 5841 5845 5847 5850 5850 5852 5854 5852 5853 5859 5861 5860 5863 5866 5867 5866 5867 5868 5871 5874 5875 5875 5877 5880 5883 5885 5887 5888 5890 5891 5892 5894 5896 5897 5899 5900 5900 5902 5903 5905 5907 5909 5911 5913 5915 5917 5919 5921 5923 5925 5927 5929 5931 5932 5934 5935 5937 5938 5939 5940 5942 5943 5944 5945 5946 5947 5947 5948 5949 5950 5951 5952
5801 5804 5807 5807 5810 5817 5820 5822 5824 5825 5828 5833 5834 5834 5839 5844 5846 5846 5847 5849 5847 5844 5849 5856 5858 5858 5860 5861 5863 5864 5866 5868 5870 5873 5874 5874 5875 5877 5880 5882 5884 5886 5889 5890 5890 5891 5894 5896 5897 5899 5900 5901 5903 5905 5906 5908 5910 5912 5915 5916 5918 5920 5922 5924 5927 5929 5931 5932 5934 5935 5936 5937 5939 5940 5942 5943 5944 5945 5946 5946 5947 5948 5949 5950 5951 5952
5795 5797 5801 5803 5805 5809 5814 5816 5818 5820 5823 5828 5830 5831 5835 5840 5842 5842 5843 5844 5840 5840 5848 5854 5856 5855 5853 5857 5861 5863 5865 5867 5868 5871 5873 5874 5874 5877 5880 5882 5883 5885 5887 5887 5887 5889 5894 5896 5896 5897 5899 5901 5902 5904 5906 5908 5910 5912 5914 5916 5917 5919 5921 5924 5926 5928 5930 5932 5933 5934 5936 5937 5938 5940 5942 5943 5944 5945 5946 5946 5947 5948 5949 5950 5951 5952
5788 5792 5797 5799 5799 5803 5808 5811 5813 5815 5819 5824 5826 5827 5831 5835 5837 5837 5838 5839 5838 5840 5847 5851 5853 5851 5849 5854 5860 5861 5864 5867 5867 5868 5871 5872 5873 5875 5880 5881 5881 5884 5887 5887 5886 5890 5893 5894 5896 5896 5897 5900 5902 5903 5905 5906 5909 5911 5913 5915 5917 5919 5921 5923 5925 5928 5930 5931 5932 5934 5935 5936 5938 5940 5941 5942 5943 5944 5945 5946 5947 5948 5949 5950 5951 5952
5783 5787 5790 5792 5793 5797 5803 5807 5810 5812 5816 5819 5822 5823 5826 5830 5832 5833 5834 5837 5839 5840 5844 5847 5848 5846 5846 5852 5857 5858 5861 5864 5866 5867 5869 5871 5871 5872 5876 5878 5879 5882 5885 5886 5886 5888 5891 5892 5894 5895 5896 5899 5901 5902 5903 5905 5907 5910 5912 5915 5916 5918 5920 5922 5924 5927 5929 5930 5931 5933 5934 5936 5938 5939 5941 5942 5943 5944 5945 5946 5947 5948 5949 5950 5951 5953
5779 5782 5784 5786 5788 5791 5797 5803 5806 5809 5811 5813 5817 5819 5821 5824 5829 5831 5833 5836 5839 5839 5841 5843 5842 5842 5845 5850 5854 5856 5857 5860 5864 5866 5866 5868 5869 5870 5873 5875 5877 5879 5881 5883 5884 5886 5888 5888 5890 5893 5896 5899 5900 5901 5902 5903 5905 5908 5910 5913 5915 5917 5919 5921 5923 5926 5928 5929 5930 5932 5933 5935 5937 5939 5940 5941 5942 5944 5945 5946 5947 5948 5949 5950 5951 5953
5773 5777 5781 5783 5783 5785 5791 5798 5801 5804 5806 5808 5812 5814 5815 5820 5827 5830 5831 5834 5837 5838 5838 5837 5837 5840 5844 5846 5850 5853 5854 5857 5861 5862 5862 5865 5867 5869 5870 5872 5875 5876 5878 5881 5883 5885 5887 5886 5886 5890 5895 5898 5899 5901 5902 5903 5905 5906 5908 5911 5913 5916 5918 5920 5922 5924 5926 5928 5929 5931 5933 5935 5937 5938 5939 5941 5942 5943 5945 5946 5947 5948 5949 5950 5951 5953
5767 5773 5776 5776 5776 5779 5784 5790 5793 5797 5801 5804 5806 5808 5811 5818 5823 5826 5827 5830 5833 5834 5834 5835 5836 5838 5840 5842 5845 5848 5852 5856 5857 5858 5861 5864 5866 5868 5869 5870 5873 5874 5877 5880 5883 5885 5886 5886 5886 5889 5894 5897 5898 5900 5901 5902 5904 5905 5907 5909 5911 5913 5915 5918 5920 5922 5924 5926 5928 5930 5932 5934 5936 5937 5939 5940 5942 5943 5944 5945 5947 5948 5949 5950 5952 5952
5761 5766 5769 5770 5771 5773 5776 5780 5784 5789 5796 5800 5803 5806 5810 5813 5817 5820 5822 5824 5827 5828 5829 5832 5834 5835 5835 5837 5840 5843 5849 5853 5855 5857 5861 5864 5865 5865 5868 5870 5872 5873 5875 5880 5882 5882 5882 5884 5886 5888 5892 5895 5897 5899 5900 5901 5902 5903 5905 5907 5909 5912 5914 5916 5919 5921 5923 5925 5927 5929 5931 5933 5935 5937 5938 5939 5940 5942 5943 5945 5946 5948 5949 5950 5951 5952
5757 5762 5764 5764 5766 5769 5771 5774 5777 5782 5788 5794 5800 5804 5805 5807 5809 5813 5815 5818 5822 5824 5826 5828 5831 5833 5833 5833 5836 5840 5846 5851 5854 5856 5860 5862 5863 5864 5866 5869 5871 5873 5874 5877 5880 5879 5879 5882 5884 5886 5890 5893 5895 5897 5899 5900 5901 5903 5904 5906 5908 5910 5912 5914 5916 5918 5920 5923 5925 5927 5929 5932 5934 5935 5937 5938 5940 5941 5943 5944 5946 5947 5948 5949 5950 5952
5753 5756 5757 5759 5762 5765 5768 5768 5771 5776 5782 5789 5795 5797 5798 5801 5805 5808 5811 5814 5818 5821 5824 5827 5828 5830 5831 5832 5834 5838 5842 5847 5851 5854 5857 5860 5861 5862 5864 5866 5869 5871 5872 5874 5878 5880 5881 5884 5885 5885 5887 5891 5893 5895 5897 5899 5900 5902 5903 5905 5907 5909 5910 5912 5914 5916 5919 5921 5923 5925 5928 5930 5932 5934 5936 5937 5939 5941 5942 5943 5945 5946 5947 5948 5950 5951
5747 5749 5752 5756 5757 5759 5762 5763 5766 5772 5779 5784 5788 5789 5791 5794 5799 5804 5806 5809 5814 5818 5821 5825 5826 5829 5831 5830 5832 5836 5840 5843 5848 5852 5855 5857 5858 5858 5861 5865 5867 5869 5870 5872 5876 5878 5879 5882 5885 5886 5887 5888 5890 5893 5895 5897 5899 5900 5902 5903 5905 5907 5909 5911 5914 5916 5918 5919 5921 5924 5926 5929 5931 5933 5934 5936 5938 5940 5941 5942 5944 5945 5946 5947 5949 5950
5738 5741 5746 5749 5750 5753 5758 5761 5763 5768 5773 5779 5782 5784 5787 5791 5795 5799 5801 5803 5809 5813 5817 5821 5825 5830 5832 5829 5828 5832 5837 5840 5845 5849 5852 5855 5856 5855 5857 5862 5864 5865 5867 5869 5873 5877 5878 5879 5882 5885 5887 5887 5887 5890 5894 5896 5898 5899 5901 5903 5904 5906 5908 5910 5912 5915 5917 5918 5921 5923 5925 5927 5929 5931 5933 5935 5937 5938 5940 5941 5943 5944 5945 5947 5948 5949
5731 5736 5741 5744 5746 5748 5752 5755 5757 5759 5765 5771 5775 5779 5783 5787 5791 5795 5797 5801 5806 5809 5813 5816 5820 5827 5830 5826 5824 5827 5833 5837 5841 5845 5849 5852 5853 5853 5855 5860 5861 5863 5865 5867 5870 5875 5877 5879 5880 5882 5885 5886 5886 5889 5892 5895 5897 5899 5900 5902 5903 5905 5907 5908 5911 5913 5915 5917 5919 5921 5923 5925 5927 5930 5932 5934 5935 5937 5938 5940 5941 5943 5945 5946 5947 5948
5728 5733 5737 5740 5742 5744 5746 5748 5750 5753 5756 5761 5766 5772 5776 5780 5786 5790 5795 5801 5805 5807 5810 5812 5814 5822 5825 5821 5821 5825 5829 5834 5838 5842 5846 5848 5849 5851 5853 5856 5858 5861 5862 5863 5867 5872 5875 5877 5878 5879 5882 5884 5885 5888 5890 5893 5896 5898 5899 5900 5902 5903 5905 5906 5908 5910 5913 5915 5917 5919 5920 5923 5926 5928 5930 5932 5934 5936 5937 5938 5940 5941 5943 5945 5946 5947
5725 5728 5730 5734 5737 5739 5743 5745 5747 5751 5752 5754 5760 5766 5769 5773 5780 5786 5791 5796 5798 5801 5806 5809 5811 5818 5821 5817 5817 5821 5825 5831 5835 5838 5842 5844 5846 5848 5851 5853 5856 5858 5858 5860 5865 5869 5871 5874 5876 5878 5881 5882 5883 5886 5889 5891 5893 5896 5898 5899 5901 5902 5903 5905 5907 5909 5911 5913 5915 5917 5919 5921 5924 5926 5929 5931 5932 5934 5935 5937 5938 5940 5941 5943 5944 5946
5718 5719 5721 5726 5728 5733 5737 5738 5740 5743 5744 5747 5753 5759 5763 5768 5774 5781 5785 5787 5788 5792 5799 5803 5807 5814 5818 5816 5815 5816 5821 5828 5832 5834 5838 5841 5843 5845 5848 5850 5853 5854 5854 5857 5861 5864 5867 5871 5874 5877 5879 5880 5881 5884 5887 5889 5891 5893 5896 5898 5899 5900 5901 5903 5905 5907 5909 5911 5912 5915 5917 5920 5922 5925 5927 5929 5930 5932 5934 5935 5937 5938 5940 5941 5943 5944
5708 5709 5714 5718 5721 5726 5729 5728 5730 5734 5737 5741 5746 5752 5759 5763 5769 5775 5777 5778 5782 5788 5792 5796 5801 5806 5812 5815 5815 5814 5819 5826 5830 5833 5836 5838 5840 5842 5843 5845 5848 5850 5851 5853 5856 5859 5863 5867 5870 5873 5877 5878 5880 5882 5885 5887 5888 5890 5893 5895 5897 5899 5900 5901 5904 5906 5908 5909 5911 5913 5916 5918 5920 5923 5925 5926 5928 5930 5932 5934 5936 5937 5938 5940 5941 5942
5698 5701 5707 5712 5715 5720 5723 5723 5726 5729 5732 5736 5739 5743 5748 5754 5761 5766 5767 5770 5777 5783 5786 5791 5796 5800 5805 5811 5813 5812 5817 5823 5825 5828 5830 5832 5834 5835 5837 5841 5845 5848 5850 5851 5854 5857 5860 5865 5868 5870 5873 5875 5877 5880 5883 5885 5886 5887 5890 5893 5894 5897 5898 5900 5902 5904 5906 5907 5910 5912 5914 5916 5918 5920 5922 5924 5926 5928 5930 5932 5934 5936 5937 5939 5940 5941
5689 5693 5700 5704 5706 5712 5716 5718 5720 5721 5724 5728 5731 5734 5738 5743 5749 5753 5758 5764 5771 5775 5781 5788 5793 5797 5802 5807 5808 5808 5812 5815 5817 5821 5824 5826 5827 5828 5832 5838 5843 5846 5849 5851 5853 5855 5857 5862 5866 5868 5871 5873 5875 5877 5880 5882 5883 5885 5887 5890 5892 5894 5897 5898 5900 5902 5904 5906 5908 5911 5913 5914 5916 5917 5919 5921 5923 5925 5928 5930 5932 5934 5935 5937 5938 5939
5682 5687 5693 5695 5698 5702 5706 5709 5712 5713 5717 5722 5725 5729 5733 5738 5742 5746 5751 5759 5764 5768 5775 5782 5787 5792 5796 5798 5799 5801 5805 5808 5812 5817 5821 5822 5824 5826 5830 5836 5841 5844 5846 5848 5850 5852 5855 5858 5862 5865 5867 5870 5872 5874 5877 5879 5881 5883 5885 5888 5890 5892 5894 5897 5899 5900 5902 5904 5907 5909 5910 5912 5914 5915 5917 5919 5921 5923 5925 5927 5929 5931 5933 5935 5936 5938
5676 5680 5684 5687 5689 5693 5698 5703 5706 5709 5713 5718 5721 5725 5729 5734 5738 5742 5746 5751 5756 5761 5768 5775 5779 5784 5788 5790 5792 5796 5800 5804 5809 5812 5814 5817 5820 5823 5826 5831 5833 5835 5836 5839 5841 5845 5848 5852 5857 5861 5864 5866 5869 5872 5874 5876 5879 5881 5882 5885 5887 5890 5892 5894 5897 5899 5901 5902 5904 5906 5908 5910 5912 5914 5915 5917 5919 5921 5922 5924 5926 5928 5931 5933 5934 5936
5671 5674 5677 5680 5681 5685 5692 5698 5702 5706 5710 5711 5715 5719 5724 5728 5733 5738 5741 5744 5750 5756 5762 5766 5769 5776 5783 5785 5787 5792 5795 5798 5803 5806 5809 5813 5817 5820 5823 5826 5828 5829 5831 5833 5836 5840 5844 5848 5852 5857 5860 5863 5866 5869 5872 5874 5876 5878 5880 5882 5885 5887 5889 5891 5894 5897 5898 5900 5901 5903 5906 5908 5910 5912 5913 5915 5917 5919 5920 5922 5924 5926 5928 5930 5932 5933
5667 5669 5672 5674 5676 5682 5688 5691 5695 5700 5700 5700 5707 5715 5720 5723 5728 5732 5736 5741 5747 5751 5755 5758 5762 5770 5778 5778 5781 5788 5791 5793 5799 5802 5805 5810 5814 5816 5819 5822 5824 5827 5830 5833 5837 5840 5843 5845 5850 5853 5857 5860 5863 5866 5869 5872 5874 5876 5878 5880 5882 5884 5886 5888 5891 5894 5895 5897 5899 5901 5904 5905 5907 5909 5911 5913 5915 5916 5918 5920 5922 5924 5926 5928 5929 5931
5663 5665 5668 5669 5671 5676 5680 5683 5686 5688 5688 5693 5705 5712 5716 5719 5723 5727 5731 5737 5741 5745 5750 5754 5757 5763 5767 5768 5775 5784 5788 5792 5797 5800 5803 5808 5810 5811 5813 5816 5820 5823 5826 5830 5834 5837 5839 5843 5847 5851 5854 5856 5859 5862 5866 5868 5871 5874 5875 5877 5879 5881 5883 5885 5888 5890 5893 5895 5897 5899 5901 5903 5905 5907 5909 5911 5913 5914 5916 5918 5920 5922 5924 5925 5926 5928
5660 5662 5664 5666 5667 5670 5674 5677 5677 5677 5683 5693 5703 5710 5713 5716 5719 5722 5726 5731 5736 5741 5745 5747 5750 5754 5757 5762 5772 5781 5785 5789 5794 5798 5800 5802 5804 5806 5809 5811 5814 5818 5822 5826 5829 5832 5836 5840 5844 5848 5851 5853 5855 5859 5862 5864 5868 5871 5872 5873 5876 5878 5881 5883 5885 5887 5890 5892 5895 5897 5899 5900 5902 5904 5906 5908 5910 5912 5914 5916 5918 5920 5921 5923 5924 5926
5656 5659 5661 5662 5664 5666 5669 5671 5670 5673 5683 5694 5703 5707 5708 5709 5712 5715 5719 5724 5730 5735 5738 5741 5746 5749 5752 5759 5769 5778 5782 5786 5790 5794 5795 5795 5797 5803 5806 5809 5812 5816 5820 5823 5826 5829 5833 5837 5841 5845 5848 5851 5853 5855 5857 5861 5864 5867 5870 5872 5874 5876 5878 5880 5882 5884 5887 5890 5893 5896 5897 5898 5900 5901 5903 5905 5907 5910 5912 5913 5915 5917 5918 5920 5921 5923
5652 5654 5656 5659 5661 5662 5665 5667 5669 5674 5684 5693 5697 5696 5696 5701 5707 5710 5713 5719 5725 5730 5733 5736 5741 5743 5746 5754 5765 5773 5778 5781 5786 5788 5787 5789 5795 5801 5804 5807 5811 5814 5817 5819 5822 5826 5830 5834 5838 5842 5845 5849 5852 5853 5855 5859 5861 5863 5866 5869 5871 5873 5875 5877 5879 5882 5885 5888 5890 5893 5895 5896 5897 5899 5901 5903 5905 5906 5908 5910 5912 5914 5915 5917 5918 5920
5648 5650 5652 5654 5657 5659 5661 5663 5665 5669 5678 5684 5685 5685 5689 5696 5700 5703 5707 5713 5718 5724 5727 5729 5733 5736 5741 5749 5759 5766 5770 5774 5779 5781 5782 5787 5794 5798 5801 5805 5808 5811 5813 5816 5819 5823 5827 5830 5834 5838 5843 5847 5849 5851 5854 5857 5859 5861 5863 5865 5868 5871 5873 5875 5877 5880 5883 5886 5888 5890 5892 5893 5895 5897 5898 5900 5902 5904 5905 5907 5909 5911 5912 5913 5915 5916
5645 5646 5647 5649 5652 5655 5657 5658 5661 5665 5670 5674 5677 5681 5687 5691 5694 5698 5702 5704 5709 5715 5720 5723 5727 5731 5736 5745 5754 5759 5762 5767 5772 5775 5779 5786 5790 5793 5798 5802 5804 5807 5810 5812 5815 5819 5822 5826 5831 5836 5840 5843 5847 5850 5853 5855 5856 5858 5860 5863 5865 5868 5870 5873 5876 5879 5881 5883 5885 5887 5889 5891 5892 5894 5896 5898 5899 5900 5902 5903 5905 5907 5908 5910 5911 5913
5641 5642 5643 5645 5648 5651 5653 5655 5658 5661 5664 5668 5672 5678 5682 5686 5690 5693 5694 5697 5704 5711 5714 5719 5724 5727 5733 5741 5748 5752 5755 5762 5767 5772 5778 5783 5787 5790 5794 5797 5800 5803 5805 5808 5812 5815 5819 5823 5828 5833 5836 5839 5844 5848 5850 5851 5853 5855 5858 5860 5862 5865 5868 5872 5875 5876 5878 5880 5882 5884 5886 5888 5889 5891 5893 5895 5896 5897 5898 5900 5901 5903 5905 5906 5908 5909
5637 5638 5640 5642 5645 5647 5650 5652 5655 5658 5660 5663 5667 5672 5676 5680 5684 5685 5688 5694 5701 5706 5708 5712 5718 5723 5729 5736 5742 5747 5753 5758 5764 5770 5774 5778 5782 5786 5790 5793 5796 5799 5801 5805 5808 5812 5816 5820 5825 5829 5832 5836 5840 5844 5846 5848 5849 5852 5856 5858 5860 5863 5867 5870 5872 5873 5875 5877 5879 5881 5883 5885 5887 5888 5890 5891 5892 5893 5895 5896 5898 5899 5901 5903 5904 5906
5634 5635 5637 5639 5642 5645 5647 5649 5652 5654 5655 5658 5662 5667 5671 5675 5679 5682 5686 5690 5695 5698 5700 5704 5709 5716 5723 5730 5737 5744 5749 5754 5760 5766 5769 5773 5778 5782 5785 5788 5792 5794 5797 5801 5804 5808 5812 5816 5820 5825 5828 5832 5836 5840 5842 5844 5846 5849 5853 5855 5858 5862 5864 5866 5868 5870 5872 5874 5876 5879 5881 5882 5884 5885 5887 5888 5889 5890 5892 5893 5894 5896 5898 5900 5901 5903
5631 5632 5634 5637 5640 5642 5643 5645 5647 5648 5651 5655 5659 5663 5666 5669 5673 5677 5681 5685 5688 5692 5695 5699 5704 5710 5717 5725 5734 5741 5745 5750 5756 5761 5764 5768 5774 5778 5781 5784 5788 5791 5794 5797 5800 5803 5808 5812 5816 5820 5824 5828 5832 5836 5838 5840 5842 5846 5850 5854 5857 5859 5859 5861 5864 5867 5869 5871 5873 5876 5878 5879 5880 5882 5883 5885 5886 5887 5888 5890 5891 5893 5895 5897 5898 5900
5630 5631 5632 5635 5637 5639 5640 5642 5643 5646 5649 5652 5655 5657 5659 5663 5668 5673 5677 5680 5683 5687 5692 5696 5701 5706 5713 5722 5730 5736 5741 5746 5751 5756 5759 5764 5770 5774 5777 5780 5784 5787 5790 5793 5796 5800 5804 5808 5812 5816 5820 5824 5828 5831 5833 5835 5839 5843 5848 5852 5854 5853 5854 5858 5861 5863 5866 5868 5870 5873 5874 5875 5877 5878 5879 5881 5882 5883 5885 5886 5888 5890 5892 5894 5895 5897
5629 5629 5630 5632 5633 5636 5638 5639 5641 5643 5645 5646 5649 5651 5655 5660 5665 5670 5673 5676 5680 5684 5689 5693 5698 5703 5710 5718 5726 5731 5736 5741 5747 5751 5755 5760 5766 5770 5773 5777 5781 5784 5787 5789 5793 5796 5800 5804 5807 5811 5815 5819 5822 5826 5829 5831 5836 5841 5845 5847 5848 5848 5851 5855 5857 5860 5862 5865 5867 5869 5871 5872 5873 5874 5876 5878 5879 5880 5881 5883 5885 5887 5889 5891 5892 5894
5628 5628 5629 5630 5631 5633 5635 5636 5637 5639 5640 5642 5645 5649 5653 5657 5661 5665 5669 5673 5677 5681 5685 5690 5695 5701 5707 5714 5721 5727 5731 5736 5742 5747 5751 5757 5762 5765 5769 5773 5777 5780 5783 5786 5790 5793 5797 5800 5803 5806 5810 5814 5817 5821 5824 5827 5832 5837 5839 5841 5842 5844 5848 5851 5854 5857 5859 5861 5864 5866 5867 5868 5870 5871 5873 5874 5876 5877 5878 5880 5882 5884 5886 5887 5889 5891
5627 5627 5627 5628 5629 5631 5632 5633 5634 5636 5637 5640 5643 5646 5649 5652 5657 5662 5666 5670 5674 5679 5682 5686 5692 5698 5704 5710 5717 5722 5727 5732 5737 5742 5748 5753 5757 5761 5766 5770 5773 5777 5780 5783 5786 5789 5793 5796 5799 5802 5806 5809 5812 5816 5819 5823 5828 5831 5834 5836 5838 5841 5844 5848 5851 5853 5856 5858 5861 5862 5864 5865 5866 5868 5870 5871 5872 5874 5875 5877 5879 5881 5883 5885 5886 5888
5625 5625 5626 5626 5627 5628 5629 5630 5631 5633 5635 5637 5639 5642 5646 5650 5655 5660 5664 5667 5671 5675 5679 5683 5688 5695 5701 5707 5712 5718 5723 5728 5733 5739 5745 5750 5754 5758 5762 5766 5769 5773 5777 5780 5783 5786 5790 5793 5796 5799 5802 5806 5809 5812 5816 5820 5823 5826 5829 5831 5834 5836 5841 5844 5847 5850 5852 5855 5857 5858 5860 5861 5863 5864 5866 5868 5869 5870 5872 5874 5876 5878 5880 5882 5883 5885
5625 5625 5625 5626 5626 5626 5627 5628 5629 5631 5633 5635 5637 5639 5644 5649 5655 5659 5661 5664 5668 5672 5676 5679 5684 5691 5698 5703 5708 5713 5718 5724 5729 5736 5742 5748 5751 5755 5759 5763 5766 5770 5774 5777 5780 5783 5787 5790 5793 5796 5800 5803 5806 5809 5812 5815 5818 5820 5823 5827 5829 5833 5837 5841 5843 5846 5848 5851 5853 5855 5856 5858 5859 5861 5863 5864 5865 5867 5869 5871 5873 5875 5877 5878 5880 5882
5625 5625 5624 5625 5625 5625 5626 5627 5628 5629 5631 5633 5636 5639 5643 5648 5652 5655 5657 5661 5665 5670 5673 5677 5681 5687 5693 5699 5704 5710 5715 5720 5726 5732 5737 5742 5746 5750 5755 5759 5763 5766 5770 5773 5777 5780 5784 5787 5790 5794 5797 5800 5803 5805 5808 5810 5813 5816 5820 5823 5826 5830 5833 5837 5839 5842 5844 5847 5849 5851 5853 5854 5856 5858 5859 5861 5862 5864 5867 5868 5870 5872 5874 5875 5877 5880
5624 5624 5623 5623 5623 5624 5625 5625 5627 5628 5630 5632 5635 5638 5641 5645 5648 5651 5654 5658 5662 5667 5671 5674 5678 5683 5689 5695 5701 5706 5711 5716 5723 5728 5732 5736 5740 5745 5750 5754 5758 5762 5766 5770 5773 5777 5781 5784 5787 5791 5793 5796 5798 5801 5804 5807 5809 5812 5815 5819 5822 5826 5830 5833 5835 5838 5841 5843 5845 5847 5849 5851 5853 5855 5856 5858 5860 5862 5864 5866 5867 5869 5871 5873 5875 5877